Regional Weather Roundup
Issued by NWS

Home | Current Version | Previous Version | Text Only | Print | Product List | Glossary On
Versions: 1 2 3 4 5 6 7 8 9 10 11 12 13 14 15 16 17 18 19 20 21 22 23 24 25 26 27 28 29 30 31 32 33 34 35 36 37 38 39 40 41 42 43 44 45 46 47 48 49 50
976
ASUS44 KJAN 220310
RWRMS

MISSISSIPPI HOURLY WEATHER ROUNDUP
NATIONAL WEATHER SERVICE JACKSON MS
900 PM CST FRI NOV 21 2014

NOTE: "FAIR: INDICATES FEW OR NO CLOUDS BELOW 12,000 FEET WITH NO
SIGNIFICANT WEATHER AND/OR OBSTRUCTIONS TO VISIBILITY.

MSZ001>002-007>008-010>013-018>021-025>028-034>036-220400-
NORTHWEST MISSISSIPPI

CITY           SKY/WX    TMP DP  RH WIND       PRES   REMARKS
CLARKSDALE     CLOUDY    55  50  82 SE6       30.28S
CLEVELAND      CLOUDY    61  50  66 SE8       30.27R
GREENWOOD      CLOUDY    61  46  57 SE9       30.29R
GREENVILLE     CLOUDY    62  47  57 SE10      30.26S
GRENADA        CLOUDY    54  48  82 CALM      30.30S
OLIVE BRANCH   PTCLDY    48  46  93 SE5       30.28F
OXFORD         FAIR      54  45  71 SE6       30.31F
TUNICA         MOCLDY    54  46  76 E6        30.28S
$$

MSZ003>006-009-014>017-022>024-029>033-037>039-220400-
NORTHEAST MISSISSIPPI

CITY           SKY/WX    TMP DP  RH WIND       PRES   REMARKS
COLUMBUS AFB   PTCLDY    53  46  78 SE7       30.32R
CORINTH        MOCLDY    54  37  54 SE6       30.31F
GOLDN TRIANGLE MOCLDY    57  46  67 SE9       30.31S
STARKVILLE     MOCLDY    54  46  76 CALM      30.31S
TUPELO         PTCLDY    53  46  77 S3        30.32R
$$

MSZ040-058-220400-
CENTRAL MISSISSIPPI

CITY           SKY/WX    TMP DP  RH WIND       PRES   REMARKS
JACKSON INTL   PTCLDY    53  45  74 E5        30.29R
JACKSON HAWKNS CLEAR     58  46  64 E5        30.29R
MERIDIAN KEY   CLEAR     47  44  90 CALM      30.32R
MERIDIAN NAS   CLEAR     48  44  86 CALM      30.32R
RAYMOND        FAIR      50  46  87 MISG      30.29R
VICKSBURG      CLOUDY    57  48  72 SE7       30.28R
$$

MSZ059>079-220400-
SOUTH MISSISSIPPI

CITY           SKY/WX    TMP DP  RH WIND       PRES   REMARKS
BROOKHAVEN     FAIR      57  45  62 CALM      30.30R
HATTIESBURG    CLEAR     48  44  86 CALM      30.30S
MCCOMB         PTCLDY    57  44  62 SE8       30.28S
NATCHEZ        CLOUDY    61  48  63 SE6       30.28S
PINE BELT      CLEAR     50  41  71 CALM      30.30S
$$

MSZ080>082-220400-
COASTAL MISSISSIPPI

CITY           SKY/WX    TMP DP  RH WIND       PRES   REMARKS
BILOXI         CLEAR     54  49  84 E5        30.28F
PASCAGOULA     CLEAR     44  43  96 CALM      30.30S
GULFPORT       CLEAR     54  49  83 E5        30.28F
$$



USA.gov is the U.S. government's official web portal to all federal, state and local government web resources and services.